sat.trackr.live / text

‹ back to catalog

STARLINK-4030

NORAD 52698 · 2022-053AU

PAYLOAD ACTIVE UNKNOWN

§ Identity

Operator
Country
US
Launch date
2022-05-18
Launch site
AFETR
Launch vehicle
Mass (kg)
RCS (m²)

Purposes: comms

External: N2YO · Heavens-Above · Gunter

§ Orbital elements

Epoch: 2026-09-19T19:32:30.489792Z

Period
93.85 min
Inclination
53.1626°
Eccentricity
0.0001571
Mean motion
15.34386184 rev/d
Perigee alt
461.7 km
Apogee alt
463.8 km
Semi-major
6,840.9 km
B*
5.1408e-5
RAAN
350.7376°
Arg perigee
62.6015°
Mean anomaly
297.5147°
Rev number
24,047

§ Raw data

STARLINK-40301 52698U 22053AU  26262.81424178  .00001360  00000+0  51408-4 0  99962 52698  53.1626 350.7376 0001571  62.6015 297.5147 15.34386184240475

JSON: /api/v1/satellites/52698 · /tle

For live sub-satellite position, see the globe view (requires WebGL).

§ Visibility from observer

Set your observer location to see the next 7 days of passes ≥ 10°. The values pass through the URL so the page stays shareable.

No JS? Fill the form by hand. The geolocation button needs JavaScript.